Satellite: MET-2/21 Catalog number: 22782 Epoch time: 08127.55626963 Element set: 0137 Inclination: 082.5452 deg RA of node: 144.6046 deg Eccentricity: 0.0023899 Arg of perigee: 049.5309 deg Mean anomaly: 310.7923 deg Mean motion: 13.83627367 rev/day Decay rate: 5.2e-07 rev/day^2 Epoch rev: 74137 Checksum: 320
Satellite: OKEAN-4 Catalog number: 23317 Epoch time: 08127.75286069 Element set: 0581 Inclination: 082.5409 deg RA of node: 353.7366 deg Eccentricity: 0.0020462 Arg of perigee: 263.9532 deg Mean anomaly: 095.9344 deg Mean motion: 14.82607810 rev/day Decay rate: 2.89e-06 rev/day^2 Epoch rev: 73214 Checksum: 317
Satellite: NOAA-14 Catalog number: 23455 Epoch time: 08128.35763624 Element set: 131 Inclination: 098.9472 deg RA of node: 200.5726 deg Eccentricity: 0.0008537 Arg of perigee: 259.1077 deg Mean anomaly: 100.9142 deg Mean motion: 14.13739236 rev/day Decay rate: -2.44e-06 rev/day^2 Epoch rev: 68858 Checksum: 311
Satellite: SICH-1 Catalog number: 23657 Epoch time: 08127.74751964 Element set: 376 Inclination: 082.5251 deg RA of node: 134.7170 deg Eccentricity: 0.0022088 Arg of perigee: 255.8779 deg Mean anomaly: 103.9975 deg Mean motion: 14.81575120 rev/day Decay rate: 2.37e-06 rev/day^2 Epoch rev: 68408 Checksum: 326
Satellite: NOAA-15 Catalog number: 25338 Epoch time: 08128.20271809 Element set: 453 Inclination: 098.5526 deg RA of node: 121.1071 deg Eccentricity: 0.0010998 Arg of perigee: 155.8604 deg Mean anomaly: 204.3076 deg Mean motion: 14.24699348 rev/day Decay rate: 1.02e-06 rev/day^2 Epoch rev: 51896 Checksum: 305
Satellite: RESURS Catalog number: 25394 Epoch time: 08127.72759763 Element set: 0925 Inclination: 098.3902 deg RA of node: 173.5677 deg Eccentricity: 0.0001609 Arg of perigee: 000.1917 deg Mean anomaly: 359.9262 deg Mean motion: 14.24158542 rev/day Decay rate: 2.0e-07 rev/day^2 Epoch rev: 51054 Checksum: 303
Satellite: FENGYUN1 Catalog number: 25730 Epoch time: 08127.97432368 Element set: 0417 Inclination: 098.7236 deg RA of node: 105.1584 deg Eccentricity: 0.0020294 Arg of perigee: 293.2720 deg Mean anomaly: 066.6312 deg Mean motion: 14.07706827 rev/day Decay rate: -3.72e-06 rev/day^2 Epoch rev: 46316 Checksum: 299
Satellite: OKEAN-0 Catalog number: 25860 Epoch time: 08127.55813170 Element set: 359 Inclination: 097.7487 deg RA of node: 119.9526 deg Eccentricity: 0.0001893 Arg of perigee: 062.5029 deg Mean anomaly: 297.6381 deg Mean motion: 14.73519169 rev/day Decay rate: 5.6e-07 rev/day^2 Epoch rev: 47326 Checksum: 332
Satellite: NOAA-16 Catalog number: 26536 Epoch time: 08128.19287526 Element set: 920 Inclination: 099.1545 deg RA of node: 116.4749 deg Eccentricity: 0.0010324 Arg of perigee: 346.3600 deg Mean anomaly: 013.7299 deg Mean motion: 14.12477797 rev/day Decay rate: -2.01e-06 rev/day^2 Epoch rev: 39298 Checksum: 321
Satellite: NOAA-17 Catalog number: 27453 Epoch time: 08128.36843251 Element set: 914 Inclination: 098.5363 deg RA of node: 194.1712 deg Eccentricity: 0.0011134 Arg of perigee: 222.9450 deg Mean anomaly: 137.0883 deg Mean motion: 14.23970990 rev/day Decay rate: 8.8e-07 rev/day^2 Epoch rev: 30499 Checksum: 313
Satellite: NOAA-18 Catalog number: 28654 Epoch time: 08128.35463111 Element set: 416 Inclination: 098.8660 deg RA of node: 069.7911 deg Eccentricity: 0.0015418 Arg of perigee: 070.1978 deg Mean anomaly: 290.0846 deg Mean motion: 14.11158673 rev/day Decay rate: -2.42e-06 rev/day^2 Epoch rev: 15271 Checksum: 310
/EX SB KEPS @ AMSAT $ORB08128.M Orbital Elements 08128.MISC
HR AMSAT ORBITAL ELEMENTS FOR MANNED AND MISCELLANEOUS SATELLITES FROM WA5QGD FORT WORTH,TX May 7, 2008 Send Subscribe/unsubscribe to KEPS at http://www.amsat.org/mailman/listinfo/keps BID: ORB08128.M TO ALL RADIO AMATEURS BT
Satellite: HUBBLE Catalog number: 20580 Epoch time: 08127.50330980 Element set: 129 Inclination: 028.4697 deg RA of node: 235.0895 deg Eccentricity: 0.0003648 Arg of perigee: 296.6025 deg Mean anomaly: 063.4189 deg Mean motion: 15.00375124 rev/day Decay rate: 3.63e-06 rev/day^2 Epoch rev: 78871 Checksum: 303
Satellite: UARS Catalog number: 21701 Epoch time: 08128.57502410 Element set: 358 Inclination: 056.9742 deg RA of node: 338.5651 deg Eccentricity: 0.0090859 Arg of perigee: 102.3893 deg Mean anomaly: 258.7358 deg Mean motion: 15.51649378 rev/day Decay rate: 6.738e-05 rev/day^2 Epoch rev: 91619 Checksum: 336
Satellite: PO-34 Catalog number: 25520 Epoch time: 08127.95264441 Element set: 0988 Inclination: 028.4588 deg RA of node: 094.8357 deg Eccentricity: 0.0005563 Arg of perigee: 193.8015 deg Mean anomaly: 166.2426 deg Mean motion: 15.17186025 rev/day Decay rate: 4.77e-06 rev/day^2 Epoch rev: 52689 Checksum: 337
Satellite: ISS Catalog number: 25544 Epoch time: 08128.54347067 Element set: 433 Inclination: 051.6413 deg RA of node: 225.8681 deg Eccentricity: 0.0006638 Arg of perigee: 178.6243 deg Mean anomaly: 300.5860 deg Mean motion: 15.76130244 rev/day Decay rate: 1.7179e-04 rev/day^2 Epoch rev: 54211 Checksum: 291
Satellite: OO-38 Catalog number: 26063 Epoch time: 08128.31737591 Element set: 204 Inclination: 100.1933 deg RA of node: 195.5384 deg Eccentricity: 0.0036763 Arg of perigee: 325.2788 deg Mean anomaly: 034.5991 deg Mean motion: 14.35834053 rev/day Decay rate: -3.3e-07 rev/day^2 Epoch rev: 43370 Checksum: 303
Satellite: UWE-1 Catalog number: 28892 Epoch time: 08127.74754259 Element set: 40 Inclination: 098.1013 deg RA of node: 022.3710 deg Eccentricity: 0.0017365 Arg of perigee: 175.0574 deg Mean anomaly: 185.0814 deg Mean motion: 14.59623593 rev/day Decay rate: 1.12e-06 rev/day^2 Epoch rev: 13455 Checksum: 289
Satellite: CO-58 Catalog number: 28895 Epoch time: 08127.71660357 Element set: 0015 Inclination: 098.1042 deg RA of node: 022.6822 deg Eccentricity: 0.0017735 Arg of perigee: 175.1886 deg Mean anomaly: 184.9492 deg Mean motion: 14.59664068 rev/day Decay rate: 7.4e-07 rev/day^2 Epoch rev: 13443 Checksum: 332
Satellite: NCUBE2 Catalog number: 28897 Epoch time: 08127.20617254 Element set: 0544 Inclination: 098.1008 deg RA of node: 022.1148 deg Eccentricity: 0.0016842 Arg of perigee: 178.2933 deg Mean anomaly: 181.8325 deg Mean motion: 14.59834144 rev/day Decay rate: 1.30e-06 rev/day^2 Epoch rev: 12664 Checksum: 295
Satellite: FCAL Catalog number: 29667 Epoch time: 08128.55157881 Element set: 935 Inclination: 051.6222 deg RA of node: 164.3946 deg Eccentricity: 0.0001657 Arg of perigee: 003.4110 deg Mean anomaly: 356.6912 deg Mean motion: 16.21525018 rev/day Decay rate: 2.74627e-03 rev/day^2 Epoch rev: 8001 Checksum: 291
Satellite: FALCON Catalog number: 30776 Epoch time: 08127.92397847 Element set: 0308 Inclination: 035.4334 deg RA of node: 043.7400 deg Eccentricity: 0.0001682 Arg of perigee: 351.6938 deg Mean anomaly: 008.3754 deg Mean motion: 15.02976193 rev/day Decay rate: 4.80e-06 rev/day^2 Epoch rev: 06393 Checksum: 305
Satellite: MAST Catalog number: 31126 Epoch time: 08127.72869422 Element set: 0320 Inclination: 098.0414 deg RA of node: 193.8138 deg Eccentricity: 0.0095919 Arg of perigee: 100.3673 deg Mean anomaly: 260.8366 deg Mean motion: 14.53420044 rev/day Decay rate: -9.1e-07 rev/day^2 Epoch rev: 05599 Checksum: 295
Satellite: CAPE1 Catalog number: 31130 Epoch time: 08127.77565398 Element set: 0300 Inclination: 098.0429 deg RA of node: 192.9658 deg Eccentricity: 0.0103995 Arg of perigee: 102.8233 deg Mean anomaly: 258.4597 deg Mean motion: 14.51959971 rev/day Decay rate: 1.36e-06 rev/day^2 Epoch rev: 05571 Checksum: 326
/EX
participants (1)
-
Ray Hoad